Location: Mentone
(34.5413°N, 85.5351°W)
Time: 14:12:20
(UTC-05:00)

Cosmos 2026 Rocket - Visible Passes

Search period start: 28 August 2015 00:00
Search period end: 07 September 2015 00:00
Orbit: 939 x 1002 km, 82.9° (Epoch: 26 August)

Date Brightness Start Highest point End Pass type
(mag) Time Alt. Az. Time Alt. Az. Time Alt. Az.
30 Aug 6.8 19:44:05 10° NW 19:48:29 20° W 19:52:40 10° SW visible
31 Aug 7.1 05:40:41 10° ESE 05:43:44 15° E 05:47:09 10° NE visible
03 Sep 7.4 05:09:31 10° E 05:10:35 11° E 05:12:10 10° ENE visible
03 Sep 7.2 19:35:59 10° NW 19:39:02 14° W 19:41:40 10° WSW visible
04 Sep 6.7 05:29:52 10° SE 05:34:17 22° E 05:38:54 10° NE visible
05 Sep 5.6 05:52:24 10° SSE 05:58:05 41° E 06:03:46 10° NNE visible
